Regional Weather Roundup
Issued by NWS Wilmington, NC

Home | Current Version | Previous Version | Text Only | Print | Product List | Glossary On
Versions: 1 2 3 4 5 6 7 8 9 10 11 12 13 14 15 16 17 18 19 20 21 22 23 24 25 26 27
000
ASUS42 KILM 300513
RWRILM
RWRILM
REGIONAL HOURLY WEATHER ROUNDUP
NATIONAL WEATHER SERVICE WILMINGTON NC
100 AM EDT MON MAY 30 2016

NOTE: "FAIR" INDICATES FEW OR NO CLOUDS BELOW 12,000 FEET WITH NO
SIGNIFICANT WEATHER AND/OR OBSTRUCTIONS TO VISIBILITY.

...............WFO WILMINGTON COUNTY WARNING AREA...............

......COASTAL NC AND SC COUNTIES......

CITY           SKY/WX    TMP DP  RH WIND       PRES   REMARKS
WILMINGTON     MOCLDY    74  72  93 E3        29.99S
N MYRTLE BEACH CLOUDY    75  69  81 SE7       29.96F
MYRTLE BEACH   CLOUDY    73  64  73 SE13      29.98S

......INLAND NC AND SC COUNTIES.......

CITY           SKY/WX    TMP DP  RH WIND       PRES   REMARKS
LUMBERTON      CLOUDY    74  71  91 E7        29.98S
ELIZABETHTOWN  CLOUDY    72  72 100 CALM      29.99S
WHITEVILLE     CLOUDY    72  70  95 CALM      29.97F
FLORENCE       CLOUDY    72  69  90 NE8       29.97F
DARLINGTON     CLOUDY    70  69  97 N10       29.98S
KINGSTREE      CLOUDY    70  68  94 CALM      29.95S
HARTSVILLE     CLOUDY    66  64  94 N9        29.98S
BENNETTSVILLE  RAIN      72  70  94 CALM      29.99R
CONWAY         CLOUDY    70  68  94 CALM      29.96S
GEORGETOWN     RAIN      70  68  94 E8        29.94F
MARION         CLOUDY    72  68  88 NE5       29.97F

....................REST OF NORTH CAROLINA......................

.........EASTERN NC.........

CITY           SKY/WX    TMP DP  RH WIND       PRES   REMARKS
CAPE HATTERAS  CLOUDY    76  71  85 S12       30.05S
JACKSONVILLE   PTCLDY    73  72  96 E5        30.01F
MOREHEAD CITY  PTCLDY    75  73  93 SE6       30.02F
KENANSVILLE    CLOUDY    72  72  99 CALM      30.02S FOG
NEW BERN       MOCLDY    74  71  91 SE5       30.03S
ELIZABETH CITY LGT RAIN  73  71  93 SE5       30.04F

.........CENTRAL NC.........

CITY           SKY/WX    TMP DP  RH WIND       PRES   REMARKS
RALEIGH DURHAM MOCLDY    66  64  93 NE5       30.03F
ROCKY MOUNT    MOCLDY    71  70  96 CALM      30.02F
ROANOKE RAPIDS NOT AVBL
FAYETTEVILLE   CLOUDY    72  70  93 N9        29.99F
HOFFMAN        MOCLDY    67  65  94 N8        30.00F

.........WESTERN NC.........

CITY           SKY/WX    TMP DP  RH WIND       PRES   REMARKS
CHARLOTTE      CLOUDY    67  59  75 N8        30.05R
GREENSBORO     MOCLDY    64  59  83 NE5       30.05F
HICKORY        NOT AVBL
BOONE          NOT AVBL
ASHEVILLE      NOT AVBL

.....................REST OF SOUTH CAROLINA.....................

.........EASTERN SC.........

CITY           SKY/WX    TMP DP  RH WIND       PRES   REMARKS
CHARLESTON     CLOUDY    71  67  87 N6        29.92F
BEAUFORT MCAS  LGT RAIN  70  68  93 W9        29.95F
HILTON HEAD    CLOUDY    70  68  94 VRB6      29.97F

.........CENTRAL SC.........

CITY           SKY/WX    TMP DP  RH WIND       PRES   REMARKS
COLUMBIA       CLOUDY    72  65  78 NW7       29.98S
ORANGEBURG     LGT RAIN  70  68  93 N6        29.96S FOG
SUMTER SHAW    CLOUDY    69  67  93 N9        29.94S

.........WESTERN SC.........

CITY           SKY/WX    TMP DP  RH WIND       PRES   REMARKS
GREENVILLE     NOT AVBL
ROCK HILL      CLOUDY    69  61  75 N10       30.05R
ANDERSON       CLOUDY    65  62  90 NE3       30.05S
CLEMSON        NOT AVBL
GREENWOOD      CLOUDY    66  59  78 N3        30.04F


...................COASTAL AND OFFSHORE REPORTS..................

................LOCAL PIERS AND NC RESERVE................


STATION/POSITION TIME  SKY/WX   TEMP    WIND        PRES    VSBY
                                AIR SEA DIR/SP/G
                 (UTC)          (F)     (DEG/KT/KT) (MB)    (MI)
JOHNY MRCER PIER 0400            76 78  140/  7/  8 1014.7
NC RESRV MASNBRO NOT AVBL
OCEAN CREST PIER NOT AVBL
SPRINGMAID  PIER 0400            72 77  140/ 11/ 13 1014.2


................COASTAL AND OFFSHORE BUOYS................


STATION/POSITION TIME  SKY/WX   TEMP    WIND        PRES    VSBY
                                AIR SEA DIR/SP/G
                 (UTC)          (F)     (DEG/KT/KT) (MB)    (MI)
DIMNDSHOAL 41025 0450            77 81  160/ 16/ 21 1017.2R
WVE H/P(F/S)=  5/ 7 SWL H/P/D(F/S/D)=  2/160/ 8

CAPE LOOKOUT     0500            75     140/ 10/ 11 1016.4F
ONSLOW BAY 41036 NOT AVBL
ONSLOW BAY 41064 0408            77 75  160/  8/ 12 1016.3F
ONSLOW BAY 41159 0425               75                N/A
WVE H/P(F/S)=  6/ 8

5SE WRITBC 41038 0408            76 76  170/  8/ 12 1016.2F
MASNBO INL 41110 0406               76                N/A
WVE H/P(F/S)=  5/ 6

WILM HARBR 41108 0426               75                N/A
WVE H/P(F/S)=  5/ 7

27SE WRITB 41037 0408            78 76  180/ 14/ 19 1015.5R
FRYING PAN 41013 0500            78 78  180/ 16/ 19 1014.8F
SUNST NRSH 41024 0408            75 76  150/  8/ 12 1014.4F
CAPRS NRSH 41029 0408            72 76  110/ 12/ 16 1012.5F
EDISTO     41004 0450            74 77  200/ 19/ 23 1012.6F
WVE H/P(F/S)=  7/ 7 SWL H/P/D(F/S/D)=  2/14



..........OFFSHORE BUOYS BEYOND 100 NM OFFSHORE...........
.....IN A TRIANGLE---HAT TO BERMUDA TO BAHAMAS TO HAT.....


STATION/POSITION TIME  SKY/WX   TEMP    WIND        PRES    VSBY
                                AIR SEA DIR/SP/G
                 (UTC)          (F)     (DEG/KT/KT) (MB)    (MI)
150E HAT   41001 NOT AVBL
W BERMUDA  41048 0450            76 76  120/ 14/ 16 1021.5F
WVE H/P(F/S)=  4/ 8 SWL H/P/D(F/S/D)=  3/130/ 8

ATLANTIC S 41049 0450            77 78   80/ 12/ 14 1020.9F
WVE H/P(F/S)=  4/ 7 SWL H/P/D(F/S/D)=  3/130/ 7

E BAHAMAS  41046 0500            80 81   90/ 10/ 14 1016.6F
NE BAHAMAS 41047 0500            78 79  120/ 16/ 17 1017.6F
120E CANVRL41010 0420            78 79  160/  6/  8 1017.4F

END




USA.gov is the U.S. government's official web portal to all federal, state and local government web resources and services.